Date String (YYYY-MM-DD hh:mm:ss) UTC,Instrument flags,Ambient pressure (hPa),Sample flow (lpm),Bypass flow (lpm),Sample temperature (°C),Ambient temperature (°C),ASC tube jacket temperature (°C),LED temperature (°C),Box temperature (°C),Sample RH (%),Span deviation,Mass concentration (μg/m³),Mass concentration (μg/m³),Mass concentration (μg/m³)
DateTimeUTC,F1_M11,P_M11,Q1_M11,Q2_M11,T1_M11,T2_M11,T3_M11,T4_M11,T5_M11,U1_M11,ZSPAN_M11,X0_M11,X2_M11,X1_M11
2021-12-27 04:00:00,,0814.9,5.01,0.00,21.6,22.6,00.0,30.5,23.5,11.3,0000.0,0002.51,0000.95,0000.42
2021-12-27 04:01:00,,0814.9,4.99,0.00,21.6,22.2,00.0,30.5,23.4,11.2,0000.0,0002.84,0000.93,0000.40
2021-12-27 04:02:00,,0814.9,5.01,0.00,21.5,21.9,00.0,30.5,23.2,11.2,0000.0,0003.83,0000.96,0000.39
2021-12-27 04:03:00,,0814.9,4.99,0.00,21.5,21.6,00.0,30.5,23.1,11.3,0000.0,0003.85,0000.95,0000.38
2021-12-27 04:04:00,,0815.0,5.01,0.00,21.4,21.3,00.0,30.5,23.0,11.3,0000.0,0003.69,0000.91,0000.37
2021-12-27 04:05:00,,0815.0,5.00,0.00,21.4,21.1,00.0,30.5,22.9,11.3,0000.0,0003.63,0000.90,0000.38
2021-12-27 04:06:00,,0815.0,4.99,0.00,21.3,21.0,00.0,30.4,22.8,11.4,0000.0,0003.84,0000.95,0000.41
2021-12-27 04:07:00,,0815.1,5.00,0.00,21.3,20.8,00.0,30.4,22.8,11.4,0000.0,0003.88,0000.99,0000.45
2021-12-27 04:08:00,,0815.2,5.00,0.00,21.2,20.7,00.0,30.4,22.7,11.5,0000.0,0003.67,0000.98,0000.48
2021-12-27 04:09:00,,0815.2,5.00,0.00,21.2,20.6,00.0,30.4,22.6,11.6,0000.0,0003.56,0000.98,0000.51
2021-12-27 04:10:00,,0815.2,5.01,0.00,21.1,20.5,00.0,30.4,22.6,11.7,0000.0,0003.72,0001.02,0000.55
2021-12-27 04:11:00,,0815.2,4.99,0.00,21.1,20.4,00.0,30.3,22.5,11.7,0000.0,0003.67,0001.01,0000.57
2021-12-27 04:12:00,,0815.1,5.02,0.00,21.1,20.9,00.0,30.3,22.7,11.8,0000.0,0003.23,0001.01,0000.59
2021-12-27 04:13:00,,0815.1,4.99,0.00,21.3,21.9,00.0,30.4,23.1,11.7,0000.0,0002.65,0001.05,0000.61
2021-12-27 04:14:00,,0815.0,5.00,0.00,21.5,22.5,00.0,30.4,23.4,11.7,0000.0,0002.67,0001.06,0000.63
2021-12-27 04:15:00,,0815.0,5.00,0.00,21.5,22.3,00.0,30.4,23.4,11.6,0000.0,0002.79,0001.12,0000.65
2021-12-27 04:16:00,,0814.9,5.00,0.00,21.5,22.0,00.0,30.4,23.2,11.6,0000.0,0002.82,0001.13,0000.64
2021-12-27 04:17:00,,0814.9,4.99,0.00,21.5,21.7,00.0,30.4,23.1,11.7,0000.0,0002.72,0001.11,0000.62
2021-12-27 04:18:00,,0815.3,5.01,0.00,21.4,21.4,00.0,30.4,22.9,11.7,0000.0,0002.71,0001.11,0000.60
2021-12-27 04:19:00,,0815.1,5.00,0.00,21.4,21.2,00.0,30.4,22.9,11.7,0000.0,0002.74,0001.10,0000.57
2021-12-27 04:20:00,,0815.3,5.00,0.00,21.3,21.0,00.0,30.4,22.7,11.8,0000.0,0002.72,0001.06,0000.54
2021-12-27 04:21:00,,0815.1,5.00,0.00,21.2,20.8,00.0,30.4,22.7,11.8,0000.0,0002.67,0001.01,0000.51
2021-12-27 04:22:00,,0815.1,5.00,0.00,21.2,20.7,00.0,30.4,22.6,11.8,0000.0,0002.64,0001.01,0000.50
2021-12-27 04:23:00,,0815.2,5.02,0.00,21.1,20.5,00.0,30.3,22.5,11.9,0000.0,0002.81,0001.05,0000.51
2021-12-27 04:24:00,,0815.2,4.98,0.00,21.1,20.4,00.0,30.3,22.5,11.9,0000.0,0002.64,0001.04,0000.54
2021-12-27 04:25:00,,0815.3,5.00,0.00,21.0,20.3,00.0,30.3,22.4,12.0,0000.0,0003.80,0001.07,0000.55
2021-12-27 04:26:00,,0815.2,5.00,0.00,21.1,21.0,00.0,30.3,22.7,12.0,0000.0,0004.89,0001.04,0000.56
2021-12-27 04:27:00,,0815.2,5.00,0.00,21.2,21.9,00.0,30.3,23.1,11.9,0000.0,0004.96,0001.04,0000.57
2021-12-27 04:28:00,,0815.2,5.00,0.00,21.4,22.5,00.0,30.4,23.4,11.7,0000.0,0004.85,0001.03,0000.58
2021-12-27 04:29:00,,0815.1,5.00,0.00,21.5,22.2,00.0,30.4,23.3,11.7,0000.0,0004.77,0000.99,0000.59
2021-12-27 04:30:00,,0815.2,5.00,0.00,21.4,21.9,00.0,30.4,23.1,11.7,0000.0,0004.69,0000.95,0000.58
2021-12-27 04:31:00,,0815.2,5.00,0.00,21.4,21.6,00.0,30.4,23.0,11.7,0000.0,0004.74,0000.93,0000.56
2021-12-27 04:32:00,,0815.1,5.01,0.00,21.3,21.3,00.0,30.4,22.8,11.8,0000.0,0004.67,0000.92,0000.55
2021-12-27 04:33:00,,0815.1,5.00,0.00,21.3,21.0,00.0,30.4,22.7,11.8,0000.0,0005.06,0000.89,0000.54
2021-12-27 04:34:00,,0815.2,5.00,0.00,21.2,20.8,00.0,30.3,22.7,11.9,0000.0,0005.45,0000.83,0000.52
2021-12-27 04:35:00,,0815.3,5.00,0.00,21.1,20.7,00.0,30.3,22.6,11.9,0000.0,0005.68,0000.78,0000.48
2021-12-27 04:36:00,,0815.3,5.00,0.00,21.1,20.5,00.0,30.3,22.5,12.0,0000.0,0004.94,0000.72,0000.44
2021-12-27 04:37:00,,0815.3,4.99,0.00,21.0,20.4,00.0,30.3,22.5,12.0,0000.0,0003.74,0000.71,0000.41
2021-12-27 04:38:00,,0815.3,5.02,0.00,21.0,20.3,00.0,30.2,22.4,12.1,0000.0,0003.74,0000.72,0000.40
2021-12-27 04:39:00,,0815.4,5.00,0.00,21.0,20.6,00.0,30.2,22.5,12.1,0000.0,0003.81,0000.71,0000.39
2021-12-27 04:40:00,,0815.4,5.01,0.00,21.1,21.6,00.0,30.3,22.9,12.0,0000.0,0004.15,0000.76,0000.38
2021-12-27 04:41:00,,0815.4,4.99,0.00,21.3,22.5,00.0,30.3,23.3,12.0,0000.0,0005.11,0000.80,0000.39
2021-12-27 04:42:00,,0815.3,5.01,0.00,21.4,22.4,00.0,30.3,23.3,12.0,0000.0,0005.02,0000.80,0000.40
2021-12-27 04:43:00,,0815.4,5.00,0.00,21.4,22.0,00.0,30.4,23.1,12.0,0000.0,0004.92,0000.80,0000.40
2021-12-27 04:44:00,,0815.3,4.99,0.00,21.4,21.7,00.0,30.4,23.0,12.1,0000.0,0004.55,0000.78,0000.40
2021-12-27 04:45:00,,0815.4,4.99,0.00,21.3,21.4,00.0,30.3,22.8,12.2,0000.0,0004.13,0000.81,0000.40
2021-12-27 04:46:00,,0815.4,5.01,0.00,21.2,21.1,00.0,30.3,22.7,12.2,0000.0,0003.92,0000.82,0000.39
2021-12-27 04:47:00,,0815.4,5.01,0.00,21.2,20.9,00.0,30.3,22.6,12.3,0000.0,0003.79,0000.85,0000.39
2021-12-27 04:48:00,,0815.5,4.99,0.00,21.1,20.7,00.0,30.3,22.5,12.4,0000.0,0003.87,0000.85,0000.39
2021-12-27 04:49:00,,0815.4,5.00,0.00,21.1,20.5,00.0,30.3,22.5,12.5,0000.0,0003.58,0000.80,0000.38
2021-12-27 04:50:00,,0815.4,5.01,0.00,21.0,20.4,00.0,30.2,22.5,12.5,0000.0,0003.47,0000.79,0000.38
2021-12-27 04:51:00,,0815.7,4.99,0.00,21.0,20.3,00.0,30.2,22.4,12.6,0000.0,0003.20,0000.73,0000.37
2021-12-27 04:52:00,,0816.0,5.00,0.00,20.9,20.4,00.0,30.2,22.4,12.6,0000.0,0002.12,0000.69,0000.36
2021-12-27 04:53:00,,0816.0,4.99,0.00,21.1,21.2,00.0,30.2,22.8,12.6,0000.0,0002.59,0000.68,0000.35
2021-12-27 04:54:00,,0816.1,5.00,0.00,21.3,22.2,00.0,30.3,23.2,12.5,0000.0,0003.33,0000.69,0000.34
2021-12-27 04:55:00,,0816.0,5.00,0.00,21.5,22.9,00.0,30.3,23.5,12.4,0000.0,0003.34,0000.68,0000.33
2021-12-27 04:56:00,,0816.1,5.00,0.00,21.5,22.7,00.0,30.4,23.4,12.3,0000.0,0002.88,0000.66,0000.33
2021-12-27 04:57:00,,0815.8,5.00,0.00,21.5,22.2,00.0,30.4,23.2,12.3,0000.0,0002.79,0000.64,0000.32
2021-12-27 04:58:00,,0815.4,4.99,0.00,21.4,21.8,00.0,30.4,23.0,12.3,0000.0,0002.69,0000.63,0000.32
2021-12-27 04:59:00,,0815.6,5.00,0.00,21.4,21.5,00.0,30.4,22.9,12.4,0000.0,0002.58,0000.61,0000.32
